RH
62 62 61 63 62 63 62 64 65 67 67 69 74 76 79 80 82 84 86 86 84 86 83 87 97 89 94 92 88 95 96 95 97 97 96 96 97 97 97 98 98 98 98 98 98 98 98 94 86 82 81 75 69 58
64 63 61 61 62 62 62 62 63 63 64 66 70 76 84 90 97 98 95 96 98 97 98 96 96 98 98 97 97 96 97 96 97 97 97 97 96 97 98 98 97 98 99 98 98 94 86 82 77 67 59 53 51 51
62 62 62 62 63 64 64 64 65 65 68 70 74 76 81 87 93 96 98 98 98 97 97 95 97 98 98 97 97 97 97 97 97 97 97 98 98 98 98 98 93 87 78 74 65 58 58 54 56 61 63 61 61 64
59 59 59 57 56 57 57 57 59 60 63 69 75 79 82 85 90 95 96 97 97 96 96 98 98 96 97 97 97 97 97 97 96 93 93 95 90 84 78 70 63 68 70 72 69 68 65 61 73 78 80 84 86 88
61 60 59 58 57 54 53 51 49 50 51 54 58 62 66 74 83 90 93 97 97 95 95 97 92 90 87 84 81 78 73 67 60 55 55 57 57 52 53 56 68 71 75 79 81 80 83 81 87 91 92 94 96 96
67 65 64 63 61 56 50 47 44 43 41 43 48 53 57 57 57 58 61 73 85 94 93 86 71 62 58 50 46 41 38 37 35 37 45 51 55 52 64 72 72 88 89 90 91 92 90 90 89 96 96 95 95 98
53 50 47 41 33 25 15 13 12 13 14 16 20 24 29 37 41 42 44 41 40 43 39 47 43 36 36 35 32 31 32 33 35 43 52 59 62 64 70 89 88 88 91 91 91 91 83 86 87 89 92 92 92 91
31 28 27 25 21 11 9 8 7 7 7 8 8 8 8 8 9 11 14 15 15 14 15 24 24 21 23 25 28 30 34 39 45 52 56 62 63 72 88 88 86 87 82 78 69 70 69 63 61 62 66 67 65 64
18 14 14 11 9 6 5 5 5 6 6 7 8 10 11 11 12 15 16 18 17 16 23 32 39 37 33 34 34 35 37 47 49 56 59 64 64 84 84 83 82 79 73 64 64 66 68 70 68 68 68 68 69 68
10 10 7 6 5 5 5 5 5 6 7 8 10 14 18 20 21 22 24 24 26 31 37 49 49 46 45 40 41 40 40 45 52 56 58 60 79 84 84 78 70 72 65 64 65 65 69 70 72 73 74 76 77 76
6 6 5 5 5 5 6 6 6 8 11 17 20 22 26 26 25 25 28 31 33 39 43 44 47 47 41 40 43 42 42 48 53 58 63 63 80 72 72 73 68 61 61 66 71 75 78 79 79 78 78 79 80 82
5 5 5 6 7 8 9 11 14 19 22 22 23 25 23 24 24 30 41 41 45 50 47 43 43 43 44 43 41 44 48 49 55 61 65 79 77 76 75 65 61 61 63 70 74 75 77 85 90 91 91 89 87 89
5 6 7 8 10 13 16 19 22 23 23 21 19 22 28 34 41 50 56 52 51 51 48 48 45 46 46 45 44 48 51 54 61 68 67 73 74 72 63 61 59 62 68 71 71 76 81 83 88 91 89 88 90 91
11 12 14 16 17 19 21 23 21 18 17 20 27 41 50 57 61 61 59 56 54 52 51 49 48 49 50 48 55 60 57 63 65 71 71 70 71 63 61 60 62 65 69 71 73 77 78 78 81 88 92 92 92 92
19 20 21 21 21 21 23 19 18 17 20 29 37 60 64 62 61 60 59 59 56 53 51 51 52 54 53 61 63 65 60 64 73 72 68 66 61 61 60 61 64 68 68 68 71 73 75 78 84 88 92 93 92 93
21 21 22 25 26 24 23 22 20 20 28 39 54 59 59 59 59 58 57 56 54 53 52 53 56 60 67 70 68 73 74 73 70 66 61 56 57 60 61 59 63 67 66 68 70 72 75 79 81 85 87 89 88 88
23 22 27 29 28 27 25 20 22 29 41 54 62 58 59 59 60 60 59 58 56 54 57 59 64 72 74 74 77 80 79 72 66 56 52 51 52 56 58 57 60 60 62 65 69 72 75 78 78 80 79 80 81 82
24 27 30 31 33 29 22 22 31 43 53 57 58 60 60 61 61 61 61 60 59 60 61 68 73 79 83 84 79 76 72 64 59 54 48 44 47 51 54 56 56 57 59 66 72 73 74 76 75 75 75 74 75 75
29 32 35 36 28 24 27 33 35 47 53 53 55 54 53 55 57 58 59 58 58 60 65 73 81 89 90 83 80 72 70 67 57 52 47 43 45 46 48 53 55 55 58 66 69 68 72 77 77 76 75 75 76 76
29 35 36 30 25 25 30 34 36 41 44 46 47 48 48 50 51 53 56 56 58 63 71 77 84 90 93 87 77 72 67 63 61 58 51 47 46 44 45 49 52 53 54 63 70 70 69 72 76 75 74 75 78 79
27 29 28 25 22 23 27 30 33 36 38 39 41 41 43 45 46 48 49 53 54 62 72 80 84 87 89 87 78 70 65 64 63 62 59 55 51 46 44 46 48 52 52 55 64 68 69 67 69 73 75 75 76 79
24 24 23 21 20 23 26 28 29 30 32 33 36 37 39 41 42 44 44 46 50 59 64 70 77 83 85 87 82 71 64 62 62 61 60 59 56 52 47 46 45 47 51 51 56 64 68 69 69 72 76 78 81 82
20 20 21 20 21 23 25 27 27 27 28 29 31 33 36 40 43 44 47 49 52 53 57 60 66 74 82 85 85 79 68 62 64 65 63 60 59 58 54 50 49 48 48 50 52 56 64 69 71 72 76 78 80 85
17 18 18 19 22 23 23 23 24 26 26 27 31 33 33 34 35 38 42 44 48 51 55 59 61 65 71 73 75 78 77 67 63 65 68 65 63 61 60 57 52 50 50 50 51 52 55 62 67 69 71 72 74 80
15 18 20 21 22 22 23 23 22 23 29 29 29 29 28 32 37 39 38 34 35 37 42 50 57 62 65 68 69 73 78 79 70 67 68 70 69 65 62 60 58 55 49 48 48 49 51 54 60 64 68 71 72 75
19 20 20 21 22 22 22 24 26 26 26 27 25 24 27 32 35 33 29 27 29 30 32 35 39 47 60 73 77 74 74 77 81 72 70 70 72 74 69 66 63 60 56 50 48 48 50 52 55 59 62 66 72 77
19 19 20 20 20 20 21 21 21 22 23 22 21 22 28 30 30 24 22 24 25 27 29 32 36 38 41 51 69 81 83 79 79 82 75 73 75 75 74 74 69 67 63 59 54 50 49 51 54 57 59 63 65 68
17 18 18 18 19 19 19 20 20 20 19 19 20 21 22 23 21 18 20 22 23 26 29 32 34 36 37 39 45 58 75 84 85 84 88 87 80 79 77 76 74 69 68 65 62 60 55 51 52 56 58 60 62 64
15 14 15 16 16 17 17 17 17 17 17 17 17 17 17 16 17 19 22 23 23 25 26 28 31 36 41 45 47 50 58 67 78 85 83 83 85 86 83 81 79 78 75 69 67 65 62 61 57 56 57 59 62 63
13 13 13 13 14 14 14 14 14 14 14 15 16 16 17 18 19 20 21 22 24 26 29 33 37 40 44 47 49 52 54 57 65 78 85 86 87 88 89 86 87 83 80 79 75 70 68 66 66 65 61 58 58 60
12 12 12 12 12 12 12 11 11 11 12 13 16 17 17 17 17 18 24 27 28 29 29 30 32 34 37 42 49 53 56 59 59 62 71 86 89 90 90 90 90 90 88 84 81 79 75 72 70 69 69 66 61 59
11 11 11 11 11 10 10 10 10 11 13 14 14 14 17 21 23 24 25 26 30 35 36 36 37 37 36 34 37 42 49 56 61 62 63 66 79 87 90 93 92 94 94 91 89 85 82 79 76 73 72 72 72 69
10 10 10 10 10 10 10 10 11 12 13 13 16 18 23 24 25 28 29 29 32 34 35 37 39 41 42 42 40 40 41 44 50 59 66 67 65 69 82 90 95 96 96 98 97 94 90 88 84 80 79 76 74 75